• In Germany
  • List of Countries
  • For 7 days
  • Water Temperature
  • Satellite Maps
  • Weather Map
  • Weather Widgets
  • user-avatar
    Login

    Hourly Weather Denisovskiy

    Today, 12 November, Monday

    Time Temperature Precipitation Wind Pressure Humidity
    00:00 -4°C° 0 mm 8 mps 767 mmHg 60%
    01:00 -4°C° 0 mm 8 mps 767 mmHg 62%
    02:00 -4°C° 0 mm 8 mps 767 mmHg 63%
    03:00 -4°C° 0 mm 7 mps 767 mmHg 65%
    04:00 -5°C° 0 mm 8 mps 767 mmHg 66%
    05:00 -5°C° 0 mm 8 mps 767 mmHg 68%
    06:00 -6°C° 0 mm 9 mps 768 mmHg 70%
    07:00 -6°C° 0 mm 9 mps 768 mmHg 69%
    08:00 -5°C° 0 mm 9 mps 768 mmHg 69%
    09:00 -6°C° 0 mm 9 mps 768 mmHg 67%
    10:00 -5°C° 0.1 mm 9 mps 768 mmHg 66%
    11:00 -5°C° 0.1 mm 9 mps 768 mmHg 64%
    12:00 -5°C° 0.1 mm 9 mps 768 mmHg 62%
    13:00 -4°C° 0.1 mm 10 mps 768 mmHg 64%
    14:00 -4°C° 0.1 mm 10 mps 768 mmHg 66%
    15:00 -4°C° 0 mm 7 mps 768 mmHg 58%
    16:00 -4°C° 0.1 mm 7 mps 768 mmHg 63%
    17:00 -5°C° 0.1 mm 8 mps 767 mmHg 68%
    18:00 -5°C° 0.1 mm 9 mps 767 mmHg 73%
    19:00 -5°C° 0.2 mm 9 mps 767 mmHg 76%
    20:00 -5°C° 0.2 mm 9 mps 767 mmHg 78%
    21:00 -5°C° 0.2 mm 9 mps 767 mmHg 80%
    22:00 -5°C° 0.4 mm 9 mps 766 mmHg 83%
    23:00 -5°C° 0.4 mm 9 mps 766 mmHg 85%

    Tomorrow, 13 November, Tuesday

    Time Temperature Precipitation Wind Pressure Humidity
    00:00 -4°C° 0.4 mm 9 mps 766 mmHg 87%
    01:00 -4°C° 0.4 mm 9 mps 765 mmHg 88%
    02:00 -3°C° 0.4 mm 9 mps 765 mmHg 89%
    03:00 -1°C° 0.4 mm 9 mps 765 mmHg 90%
    04:00 -1°C° 0.4 mm 9 mps 765 mmHg 90%
    05:00 0°C° 0.4 mm 10 mps 765 mmHg 89%
    06:00 0°C° 0.4 mm 10 mps 764 mmHg 88%
    07:00 0°C° 0.4 mm 10 mps 764 mmHg 87%
    08:00 -1°C° 0.4 mm 11 mps 765 mmHg 87%
    09:00 -1°C° 0.4 mm 11 mps 765 mmHg 87%
    10:00 -1°C° 0.3 mm 11 mps 765 mmHg 86%
    11:00 -1°C° 0.3 mm 11 mps 765 mmHg 85%
    12:00 -1°C° 0.3 mm 11 mps 765 mmHg 84%
    13:00 -1°C° 0 mm 11 mps 765 mmHg 83%
    14:00 +1°C° 0 mm 10 mps 765 mmHg 82%
    15:00 +1°C° 0 mm 10 mps 765 mmHg 80%
    16:00 0°C° 0 mm 10 mps 766 mmHg 79%
    17:00 0°C° 0 mm 10 mps 766 mmHg 79%
    18:00 0°C° 0 mm 9 mps 766 mmHg 78%
    19:00 0°C° 0 mm 9 mps 766 mmHg 78%
    20:00 0°C° 0 mm 9 mps 766 mmHg 78%
    21:00 0°C° 0 mm 9 mps 766 mmHg 77%
    22:00 0°C° 0 mm 9 mps 766 mmHg 78%
    23:00 -1°C° 0 mm 9 mps 766 mmHg 78%

    Day after tomorrow, 14 November, Wednesday

    Time Temperature Precipitation Wind Pressure Humidity
    00:00 -1°C° 0 mm 8 mps 766 mmHg 78%
    01:00 -1°C° 0 mm 8 mps 766 mmHg 78%
    02:00 -1°C° 0 mm 8 mps 766 mmHg 78%
    03:00 -1°C° 0 mm 8 mps 766 mmHg 78%
    04:00 -1°C° 0 mm 8 mps 765 mmHg 79%
    05:00 -1°C° 0 mm 8 mps 765 mmHg 79%
    06:00 -1°C° 0 mm 8 mps 765 mmHg 79%
    07:00 -1°C° 0 mm 8 mps 765 mmHg 78%
    08:00 -1°C° 0 mm 9 mps 765 mmHg 77%
    09:00 0°C° 0 mm 9 mps 765 mmHg 75%
    10:00 +1°C° 0 mm 9 mps 764 mmHg 72%
    11:00 +1°C° 0 mm 9 mps 764 mmHg 68%
    12:00 +2°C° 0 mm 9 mps 764 mmHg 65%
    13:00 +2°C° 0 mm 8 mps 764 mmHg 63%
    14:00 +4°C° 0 mm 8 mps 763 mmHg 61%
    15:00 +4°C° 0 mm 8 mps 763 mmHg 60%
    16:00 +2°C° 0 mm 8 mps 763 mmHg 62%
    17:00 +2°C° 0 mm 7 mps 763 mmHg 64%
    18:00 0°C° 0 mm 7 mps 763 mmHg 67%
    19:00 0°C° 0 mm 7 mps 762 mmHg 68%
    20:00 0°C° 0 mm 7 mps 762 mmHg 70%
    21:00 -1°C° 0 mm 7 mps 762 mmHg 71%
    22:00 -1°C° 0 mm 8 mps 762 mmHg 74%
    23:00 -1°C° 0 mm 8 mps 762 mmHg 76%

    15 November, Thursday

    Time Temperature Precipitation Wind Pressure Humidity
    00:00 -1°C° 0 mm 8 mps 761 mmHg 79%
    01:00 -1°C° 0 mm 8 mps 761 mmHg 79%
    02:00 -1°C° 0 mm 8 mps 761 mmHg 80%
    03:00 -1°C° 0 mm 8 mps 761 mmHg 81%
    04:00 -2°C° 0 mm 8 mps 761 mmHg 81%
    05:00 -2°C° 0 mm 8 mps 761 mmHg 82%
    06:00 -2°C° 0 mm 8 mps 761 mmHg 82%
    07:00 -1°C° 0 mm 9 mps 761 mmHg 79%
    08:00 -1°C° 0 mm 9 mps 761 mmHg 76%
    09:00 -1°C° 0 mm 9 mps 761 mmHg 73%
    10:00 +1°C° 0 mm 9 mps 761 mmHg 68%
    11:00 +2°C° 0 mm 9 mps 761 mmHg 63%
    12:00 +3°C° 0 mm 9 mps 761 mmHg 58%
    13:00 +3°C° 0 mm 9 mps 760 mmHg 56%
    14:00 +3°C° 0 mm 9 mps 760 mmHg 54%
    15:00 +3°C° 0 mm 9 mps 760 mmHg 52%
    16:00 +4°C° 0.1 mm 8 mps 760 mmHg 53%
    17:00 +4°C° 0.1 mm 8 mps 760 mmHg 55%
    18:00 +2°C° 0.1 mm 8 mps 760 mmHg 56%
    19:00 +2°C° 0.4 mm 8 mps 761 mmHg 59%
    20:00 +2°C° 0.4 mm 8 mps 761 mmHg 63%
    21:00 +2°C° 0.4 mm 9 mps 761 mmHg 67%
    22:00 +1°C° 0.3 mm 9 mps 761 mmHg 69%
    23:00 +1°C° 0.3 mm 9 mps 761 mmHg 71%

    16 November, Friday

    Time Temperature Precipitation Wind Pressure Humidity
    00:00 +1°C° 0.3 mm 9 mps 761 mmHg 74%
    01:00 +1°C° 0.1 mm 9 mps 761 mmHg 75%
    02:00 +2°C° 0.1 mm 9 mps 761 mmHg 75%
    03:00 +2°C° 0.1 mm 9 mps 761 mmHg 76%
    04:00 +2°C° 0 mm 8 mps 761 mmHg 77%
    05:00 +2°C° 0 mm 8 mps 761 mmHg 78%
    06:00 +2°C° 0 mm 8 mps 761 mmHg 78%
    07:00 +2°C° 0 mm 8 mps 762 mmHg 78%
    08:00 +2°C° 0 mm 8 mps 762 mmHg 77%
    09:00 +2°C° 0 mm 8 mps 762 mmHg 76%
    10:00 +2°C° 0 mm 8 mps 762 mmHg 74%
    11:00 +4°C° 0 mm 8 mps 762 mmHg 72%
    12:00 +4°C° 0 mm 8 mps 762 mmHg 70%
    13:00 +4°C° 0 mm 8 mps 762 mmHg 70%
    14:00 +4°C° 0 mm 8 mps 762 mmHg 69%
    15:00 +4°C° 0 mm 8 mps 762 mmHg 69%
    16:00 +4°C° 0 mm 8 mps 762 mmHg 69%
    17:00 +2°C° 0 mm 8 mps 762 mmHg 70%
    18:00 +3°C° 0 mm 7 mps 763 mmHg 70%
    19:00 +3°C° 0 mm 7 mps 763 mmHg 71%
    20:00 +3°C° 0 mm 7 mps 763 mmHg 71%
    21:00 +3°C° 0 mm 7 mps 763 mmHg 72%
    22:00 +3°C° 0.1 mm 7 mps 763 mmHg 73%
    23:00 +2°C° 0.1 mm 8 mps 763 mmHg 75%

    17 November, Saturday

    Time Temperature Precipitation Wind Pressure Humidity
    00:00 +1°C° 0.1 mm 8 mps 762 mmHg 76%
    01:00 +1°C° 0 mm 8 mps 762 mmHg 76%
    02:00 +1°C° 0 mm 8 mps 762 mmHg 76%
    03:00 +1°C° 0 mm 8 mps 762 mmHg 76%
    04:00 +1°C° 0 mm 8 mps 762 mmHg 75%
    05:00 0°C° 0 mm 7 mps 762 mmHg 73%
    06:00 0°C° 0 mm 7 mps 761 mmHg 72%
    07:00 0°C° 0 mm 7 mps 762 mmHg 70%
    08:00 0°C° 0 mm 7 mps 762 mmHg 69%
    09:00 0°C° 0 mm 7 mps 762 mmHg 68%
    10:00 0°C° 0 mm 7 mps 761 mmHg 66%
    11:00 +2°C° 0 mm 7 mps 761 mmHg 65%
    12:00 +2°C° 0 mm 7 mps 761 mmHg 63%
    13:00 +2°C° 0 mm 7 mps 761 mmHg 62%
    14:00 +2°C° 0 mm 7 mps 761 mmHg 61%
    15:00 +3°C° 0 mm 7 mps 761 mmHg 60%
    16:00 +2°C° 0.1 mm 6 mps 761 mmHg 60%
    17:00 +2°C° 0.1 mm 6 mps 761 mmHg 60%
    18:00 +2°C° 0.1 mm 5 mps 761 mmHg 60%
    19:00 +1°C° 0.2 mm 5 mps 761 mmHg 60%
    20:00 +1°C° 0.2 mm 5 mps 761 mmHg 60%
    21:00 +1°C° 0.2 mm 5 mps 761 mmHg 61%
    22:00 +1°C° 0.3 mm 4 mps 761 mmHg 62%
    23:00 0°C° 0.3 mm 4 mps 761 mmHg 64%
    Show more